Wind_Speed
7 8 9 9 9 10 10 11 11 11 11 12 5 12 13 14 16 18 14 13 14 15 18 19 19 20 11 15 7 7 7 7 7 7 4 4 5 6 5 6 5 5 4
7 8 9 9 10 10 9 9 9 10 10 10 11 11 12 12 10 8 12 14 15 17 18 20 20 18 16 5 5 7 7 8 8 9 7 7 6 8 9 8 7 7 7
6 5 7 8 9 11 11 10 10 9 9 9 10 10 11 11 10 9 10 12 14 16 18 18 19 18 15 14 8 8 8 7 9 9 10 9 9 9 9 10 9 8 8
3 4 6 8 9 9 10 10 10 10 11 12 12 12 12 12 10 10 9 9 10 12 15 16 17 16 17 16 9 10 12 9 9 9 10 11 11 11 10 10 10 9 8
7 6 6 6 7 8 8 9 9 9 10 10 10 11 12 14 14 15 15 14 13 13 12 13 13 14 13 13 12 12 10 10 10 10 11 12 13 14 12 11 11 11 9
5 6 6 6 6 7 9 11 11 12 12 10 11 12 13 16 18 17 15 14 16 18 19 17 17 13 12 11 11 12 12 11 11 13 12 14 15 15 15 14 13 12 10
6 6 7 8 9 10 11 12 13 13 14 15 14 15 16 16 21 21 21 20 17 16 18 19 19 17 16 12 11 12 13 13 14 15 17 16 16 17 17 16 17 16 13
4 3 4 4 5 7 7 8 9 12 13 15 17 17 16 18 8 21 22 22 24 24 21 20 20 20 19 18 17 13 14 16 17 18 21 16 18 18 20 19 18 19 18
1 2 4 4 4 6 7 10 11 12 12 12 14 17 21 22 23 24 25 25 28 24 23 21 22 21 19 21 19 19 18 17 18 19 18 15 19 21 20 21 20 20 21
5 5 6 5 6 8 8 10 13 16 18 21 24 26 26 25 28 28 27 26 28 29 27 28 25 22 24 23 23 21 21 22 23 21 22 23 20 19 23 20 22 23 22
9 8 9 9 9 11 11 16 18 21 24 25 29 31 32 33 31 31 30 30 30 31 33 36 28 27 29 23 27 26 28 29 28 26 26 25 26 24 23 22 22 24 24
13 13 13 13 14 17 19 22 25 28 29 33 36 37 38 37 35 38 37 33 36 33 31 33 38 35 33 34 26 28 30 30 29 29 29 31 29 28 27 27 22 27 26
18 17 16 16 18 22 26 26 27 30 33 36 37 38 40 40 43 37 44 43 41 37 36 35 36 37 37 37 35 30 28 33 31 29 33 28 31 31 30 30 29 25 30
22 20 19 22 25 28 29 29 32 37 38 41 41 41 41 40 42 41 36 39 41 41 39 33 38 41 36 39 40 35 35 29 32 35 36 34 34 35 34 32 31 31 29
21 23 25 29 31 32 34 37 36 37 41 44 44 43 42 40 39 39 42 41 42 42 46 35 42 41 47 38 38 41 36 35 32 34 38 37 41 42 39 37 35 35 34
25 27 29 31 33 34 39 43 43 44 48 49 49 44 41 43 44 42 42 44 48 47 46 36 38 42 45 50 41 39 43 38 36 34 37 37 33 39 40 35 35 37 38
30 29 31 33 35 42 43 46 48 52 54 57 53 50 46 44 42 44 45 46 48 50 48 44 42 44 44 47 48 44 44 43 38 36 34 30 25 25 31 31 32 36 40
34 38 36 36 39 41 45 47 48 53 57 56 52 50 45 45 45 46 47 48 48 49 51 49 47 46 49 50 50 48 46 47 40 42 34 39 34 29 31 31 30 34 38
46 50 44 39 35 39 45 48 51 55 54 54 52 49 49 49 49 49 50 51 50 51 51 52 50 49 50 52 52 50 45 46 46 40 43 38 40 40 35 33 33 34 37
49 32 33 35 38 39 46 51 54 57 57 54 53 53 53 51 51 51 51 52 51 52 52 54 52 49 49 48 53 51 49 46 47 42 42 39 39 40 38 36 36 36 35
59 47 34 37 41 48 51 55 57 58 56 54 54 53 54 54 54 53 52 50 50 51 51 51 49 50 46 44 47 49 50 49 42 42 41 39 37 37 37 36 33 34 35
43 41 35 36 45 48 54 51 52 53 51 51 53 54 56 54 52 52 49 49 48 48 48 48 46 47 43 43 45 48 47 44 40 38 36 39 38 37 36 35 31 31 33
42 38 38 42 46 47 48 51 51 51 52 55 56 55 54 52 50 46 46 45 43 44 44 45 43 42 41 41 40 38 38 39 39 33 38 36 35 35 37 35 30 30 31
35 37 39 43 46 47 49 50 52 54 56 55 53 50 47 45 44 44 43 40 40 40 42 44 42 38 39 39 39 36 38 39 38 36 38 36 37 40 39 35 31 31 32
34 39 41 42 44 47 49 52 54 53 51 49 47 46 44 43 43 41 40 38 38 38 41 42 40 37 35 34 35 37 37 37 35 33 37 33 35 32 35 33 32 30 30
42 42 43 46 47 48 49 47 46 47 47 47 46 46 46 44 44 44 42 40 37 37 38 38 35 35 34 34 35 36 35 34 29 31 30 31 24 33 34 32 30 28 27
Wind_Direction
97 87 76 72 68 61 59 57 53 49 45 57 12 30 28 26 25 358 6 9 6 5 8 8 355 352 313 267 259 278 279 274 272 267 250 240 250 262 235 235 249 244 252
93 82 79 72 65 59 56 53 50 47 45 43 41 34 32 37 43 357 2 2 1 359 2 6 4 349 344 323 237 282 280 281 272 267 262 260 247 261 263 253 251 254 256
105 81 75 62 62 60 59 54 49 48 43 36 36 33 31 30 33 23 16 9 4 4 359 0 4 8 5 342 301 282 278 280 275 267 265 264 263 255 259 262 256 253 255
71 47 57 53 72 67 60 50 42 38 34 28 22 18 14 12 7 360 358 354 353 2 356 2 356 5 5 358 321 278 256 262 257 264 269 269 269 260 253 254 259 255 257
65 67 56 47 51 44 36 29 21 26 18 17 18 15 11 5 359 352 348 347 342 341 344 342 349 348 352 0 355 329 297 241 263 262 260 266 269 269 256 252 254 262 256
43 46 48 44 31 20 12 10 11 6 12 8 1 357 359 355 352 348 342 332 325 328 330 331 330 332 337 335 330 330 334 317 277 260 261 263 266 267 266 263 258 255 251
27 9 6 359 358 359 4 2 359 358 359 357 356 352 350 348 347 342 332 330 324 322 321 322 324 318 314 312 311 304 307 306 307 309 286 254 259 267 267 263 265 259 255
348 321 325 339 355 355 355 349 349 347 346 347 345 343 338 344 293 318 324 325 324 319 316 312 313 313 314 309 304 305 302 302 302 304 315 231 262 263 267 264 261 261 259
352 319 310 323 342 339 338 336 335 334 336 333 331 334 330 326 324 320 317 318 311 317 317 308 306 302 300 305 303 298 295 292 290 290 295 280 272 260 259 265 263 257 256
283 285 286 293 302 312 316 326 329 325 325 321 321 316 313 310 313 313 312 312 313 310 309 312 308 297 294 292 288 290 291 289 285 283 282 280 277 273 264 258 263 258 251
280 285 288 289 302 310 314 317 322 323 323 322 320 318 315 312 308 304 304 306 305 305 308 305 299 299 299 288 285 280 283 287 282 280 276 275 274 271 267 267 259 253 255
275 282 288 296 306 307 313 318 320 322 324 322 319 317 316 312 306 312 304 307 304 302 303 299 302 303 303 299 293 290 279 278 278 278 281 275 270 268 265 261 268 249 246
289 291 292 302 305 310 311 313 314 315 321 322 317 313 312 309 305 302 301 300 299 299 300 301 298 296 301 298 295 293 287 282 276 274 273 274 268 266 262 261 259 262 247
293 284 285 296 304 304 303 307 309 314 316 316 313 308 303 301 298 301 296 295 289 294 293 294 295 298 292 296 295 290 288 285 279 273 272 268 264 262 260 257 257 257 260
285 273 281 290 300 305 307 305 309 313 313 315 309 300 298 297 293 291 292 298 282 292 286 290 292 293 291 274 285 293 289 285 284 274 272 272 267 255 254 253 255 255 252
271 269 277 288 295 300 304 309 312 314 315 313 311 306 298 293 290 287 285 287 286 286 284 285 282 284 286 289 285 283 286 285 282 279 275 281 275 254 252 254 258 259 255
269 268 272 281 290 300 302 304 310 311 315 310 304 299 297 291 288 286 284 283 283 285 285 281 276 277 278 279 283 281 285 286 279 278 272 268 261 254 250 258 264 263 259
272 268 270 279 289 291 295 303 308 309 307 307 301 295 292 291 291 289 287 286 285 285 287 286 281 278 278 279 278 278 279 281 279 274 272 255 253 262 265 264 268 266 261
272 265 260 268 274 284 292 300 305 306 305 301 300 294 292 291 290 288 287 286 284 283 282 282 281 280 277 277 279 277 276 278 278 274 270 263 251 257 268 269 270 270 267
269 269 275 283 286 295 301 304 304 304 302 299 296 293 291 290 288 288 287 285 284 283 281 281 281 280 276 275 275 275 273 272 270 268 266 265 261 252 258 264 269 275 268
266 266 279 298 301 298 299 298 299 299 294 293 293 291 291 290 289 287 286 285 284 283 281 279 280 280 279 275 275 273 271 269 269 266 265 264 261 259 260 262 269 278 268
287 281 302 297 292 298 297 296 297 295 295 293 291 289 288 288 286 285 285 286 286 285 282 279 278 277 278 279 275 271 268 266 264 263 259 262 263 260 257 259 266 274 263
288 309 300 294 293 292 291 296 297 296 294 291 290 290 290 288 287 288 288 288 286 283 280 278 275 275 274 273 268 269 269 269 267 260 256 257 258 261 254 254 260 268 257
304 299 299 297 295 294 297 297 296 296 295 293 293 293 293 291 292 293 294 291 286 283 279 276 275 272 273 268 267 266 267 268 260 255 251 261 259 255 258 247 253 263 257
304 302 301 302 301 300 300 300 300 298 297 298 298 298 296 295 294 292 292 291 287 281 276 275 273 271 271 269 267 269 273 268 256 251 255 264 267 250 239 239 246 256 254
310 308 305 303 303 304 303 301 301 302 302 302 301 301 299 297 294 291 291 290 285 280 276 276 273 264 266 265 268 271 268 260 261 259 266 267 251 229 221 233 245 252 256
Height
5937 5936 5935 5933 5932 5931 5929 5929 5927 5926 5926 5927 5929 5924 5922 5922 5920 5921 5918 5916 5915 5913 5911 5909 5906 5903 5902 5902 5903 5904 5904 5904 5904 5905 5904 5905 5907 5909 5909 5910 5910 5911 5911
5939 5937 5936 5935 5934 5932 5931 5930 5929 5928 5927 5926 5925 5924 5922 5922 5923 5924 5919 5917 5915 5913 5911 5909 5907 5903 5901 5900 5902 5902 5903 5903 5903 5904 5904 5904 5905 5907 5908 5909 5908 5909 5910
5939 5938 5937 5936 5935 5934 5933 5932 5931 5930 5929 5927 5926 5925 5924 5923 5922 5920 5918 5917 5915 5912 5909 5908 5907 5904 5902 5901 5901 5901 5902 5901 5903 5903 5903 5903 5905 5905 5907 5908 5908 5908 5909
5940 5939 5938 5937 5936 5935 5935 5934 5932 5931 5930 5929 5927 5926 5925 5924 5923 5922 5920 5917 5915 5913 5910 5908 5906 5905 5903 5900 5899 5900 5900 5900 5900 5901 5902 5902 5903 5905 5905 5906 5907 5907 5907
5940 5940 5939 5938 5937 5937 5936 5935 5933 5932 5930 5929 5927 5925 5925 5924 5923 5922 5920 5918 5915 5912 5910 5908 5906 5903 5902 5902 5900 5898 5897 5898 5899 5899 5899 5900 5901 5903 5904 5904 5904 5906 5906
5942 5941 5940 5939 5938 5937 5937 5935 5933 5932 5931 5929 5927 5925 5923 5923 5922 5920 5919 5918 5916 5912 5909 5907 5905 5902 5901 5900 5899 5899 5897 5897 5896 5896 5898 5898 5900 5901 5902 5902 5902 5903 5903
5943 5943 5942 5941 5940 5938 5936 5935 5934 5932 5930 5929 5927 5925 5923 5921 5920 5919 5917 5915 5913 5910 5908 5906 5904 5902 5899 5898 5897 5896 5895 5894 5894 5894 5895 5895 5897 5899 5899 5900 5901 5901 5901
5944 5943 5942 5941 5939 5937 5936 5934 5933 5932 5930 5928 5927 5924 5922 5921 5920 5919 5915 5912 5909 5907 5905 5903 5900 5899 5897 5896 5893 5892 5891 5891 5891 5890 5891 5892 5892 5894 5896 5896 5897 5899 5898
5943 5942 5941 5940 5938 5936 5934 5933 5932 5930 5928 5927 5925 5923 5920 5918 5915 5911 5910 5908 5905 5903 5901 5899 5898 5896 5895 5892 5892 5890 5889 5888 5888 5888 5888 5889 5890 5890 5890 5892 5894 5894 5895
5943 5942 5940 5939 5937 5934 5932 5930 5929 5927 5926 5924 5923 5920 5918 5916 5913 5911 5906 5903 5901 5899 5897 5894 5893 5893 5891 5889 5888 5887 5886 5885 5885 5884 5885 5885 5885 5886 5886 5886 5889 5890 5890
5941 5940 5938 5936 5935 5933 5931 5929 5926 5924 5922 5920 5917 5915 5913 5910 5907 5905 5903 5899 5896 5893 5890 5888 5888 5886 5884 5886 5883 5882 5882 5881 5880 5879 5879 5880 5879 5879 5880 5881 5881 5884 5886
5938 5936 5935 5933 5931 5929 5926 5924 5921 5919 5917 5914 5911 5907 5903 5901 5898 5895 5893 5893 5890 5887 5885 5883 5880 5878 5877 5875 5877 5875 5874 5873 5873 5873 5872 5873 5873 5874 5873 5874 5876 5877 5879
5934 5933 5931 5930 5927 5925 5922 5920 5917 5915 5912 5908 5904 5901 5897 5894 5890 5888 5884 5882 5881 5881 5876 5875 5873 5872 5870 5868 5867 5868 5866 5864 5865 5865 5864 5864 5865 5866 5867 5868 5868 5870 5872
5931 5929 5927 5924 5922 5919 5917 5915 5912 5909 5906 5903 5898 5895 5891 5888 5883 5880 5878 5874 5874 5873 5869 5869 5865 5863 5863 5864 5856 5857 5856 5857 5856 5855 5855 5856 5857 5857 5859 5860 5861 5862 5865
5926 5925 5922 5920 5918 5916 5913 5911 5907 5902 5898 5895 5890 5886 5882 5878 5875 5872 5868 5865 5860 5863 5864 5863 5856 5855 5850 5853 5851 5845 5845 5846 5847 5846 5845 5846 5846 5846 5847 5850 5852 5854 5855
5920 5919 5917 5915 5912 5910 5907 5902 5898 5894 5890 5885 5880 5875 5872 5868 5865 5862 5860 5857 5853 5851 5850 5853 5851 5847 5842 5836 5839 5839 5836 5837 5837 5836 5834 5833 5832 5833 5838 5841 5843 5845 5846
5916 5912 5909 5907 5906 5902 5898 5894 5890 5885 5880 5876 5871 5865 5862 5857 5854 5851 5848 5845 5842 5838 5834 5839 5839 5838 5835 5828 5827 5828 5826 5825 5825 5827 5826 5826 5825 5827 5831 5832 5833 5835 5837
5907 5906 5902 5899 5896 5893 5890 5886 5882 5876 5871 5865 5860 5855 5851 5846 5842 5839 5835 5833 5830 5827 5822 5821 5823 5825 5822 5817 5815 5816 5816 5813 5815 5814 5817 5815 5817 5818 5822 5823 5823 5825 5826
5896 5893 5889 5889 5886 5883 5880 5877 5872 5865 5859 5853 5849 5845 5840 5835 5831 5827 5823 5820 5817 5814 5811 5807 5807 5808 5807 5804 5803 5803 5804 5803 5800 5802 5802 5805 5806 5809 5811 5813 5814 5814 5814
5885 5882 5881 5881 5877 5871 5868 5865 5858 5853 5847 5841 5836 5832 5827 5822 5817 5813 5809 5806 5803 5800 5798 5794 5793 5794 5793 5794 5788 5788 5790 5790 5788 5789 5790 5792 5794 5798 5801 5803 5804 5805 5804
5872 5872 5873 5870 5865 5861 5858 5852 5846 5841 5834 5829 5823 5818 5813 5807 5802 5798 5794 5792 5788 5785 5782 5780 5779 5778 5779 5778 5776 5773 5773 5774 5776 5777 5779 5780 5782 5786 5790 5792 5793 5793 5794
5864 5865 5863 5858 5853 5850 5843 5838 5832 5827 5820 5814 5810 5804 5798 5792 5787 5783 5780 5777 5774 5771 5767 5765 5765 5763 5765 5764 5761 5758 5758 5760 5763 5764 5765 5769 5771 5774 5779 5782 5783 5785 5785
5855 5852 5848 5845 5840 5836 5831 5825 5818 5813 5807 5801 5795 5789 5784 5777 5773 5770 5766 5763 5760 5757 5754 5752 5751 5751 5751 5751 5749 5748 5748 5749 5751 5755 5754 5756 5758 5762 5766 5772 5774 5776 5776
5846 5842 5836 5832 5827 5822 5817 5811 5805 5798 5793 5787 5780 5773 5768 5763 5759 5755 5752 5749 5746 5744 5742 5739 5739 5739 5739 5739 5739 5739 5738 5738 5739 5741 5743 5745 5748 5751 5755 5760 5764 5767 5768
5833 5829 5824 5818 5813 5808 5804 5798 5791 5786 5779 5772 5765 5760 5755 5751 5746 5742 5740 5738 5734 5732 5728 5727 5727 5728 5728 5728 5728 5728 5729 5729 5726 5730 5732 5737 5736 5738 5742 5750 5755 5759 5760
5820 5816 5811 5805 5799 5795 5790 5785 5779 5773 5766 5759 5753 5747 5742 5738 5734 5730 5727 5725 5722 5719 5717 5715 5716 5717 5717 5718 5719 5719 5720 5716 5720 5722 5725 5726 5728 5728 5736 5742 5747 5751 5752